Home   Weather   Fjerdingby   Past weeks

Flag for Norway Past Weather in Fjerdingby, Norway — Yesterday and Last 2 Weeks

Now
51 °F

Cool.


Feels Like: 51 °F
Forecast: 48 / 57 °F
Wind: 1 mph from West

Location: Oslo-Blindern

Current Time: Sep 29, 2016 at 3:43:32 AM

Latest Report: Sep 29, 2016 at 2:00 AM


Visibility: 31 mi

Pressure: 29.61 "Hg

Humidity: 66%

Dew Point: 40 °F

Location of FjerdingbyLocation

Past Weather in Fjerdingby — Graph

°F

Fjerdingby Temperature Yesterday

Maximum temperature yesterday: 62 °F (at 4:00 PM)
Minimum temperature yesterday: 53 °F (at 7:00 AM)
Average temperature yesterday: 57 °F

High & Low Weather Summary for the Past Weeks

 TemperatureHumidityPressure
High74 °F (Sep 15, 4:00 PM)99% (Sep 15, 8:00 AM)30.27 "Hg (Sep 15, 8:00 AM)
Low42 °F (Sep 24, 7:00 AM)50% (Sep 17, 4:00 PM)29.50 "Hg (Sep 28, 9:00 AM)
Average58 °F83%30.08 "Hg
* Reported Sep 14 2:00 AM — Sep 29 2:00 AM, Fjerdingby, Weather by CustomWeather, © 2016

Note: Actual official high and low records may vary slightly from our data, if they occured in-between our weather recording intervals... More about our weather records

Advertising

Fjerdingby Weather History for the Previous 24 Hours

Scroll right to see more
 ConditionsComfort  
Time TempWeatherWind HumidityBarometerVisibility
2:00 AM
Thu, Sep 29
51 °FCool.1 mph66%29.61 "Hg31 mi
1:00 AM54 °FCool.2 mph56%29.62 "Hg31 mi
12:00 AM56 °FRefreshingly cool.3 mph52%29.61 "Hg31 mi
11:00 PM
Wed, Sep 28
56 °FRefreshingly cool.5 mph53%29.64 "Hg31 mi
10:00 PM56 °FRefreshingly cool.6 mph56%29.63 "Hg31 mi
9:00 PM55 °FCool.1 mph61%29.63 "Hg31 mi
8:00 PM56 °FCool.2 mph62%29.63 "Hg31 mi
7:00 PM58 °FRefreshingly cool.2 mph56%29.60 "Hg31 mi
6:00 PM62 °FRefreshingly cool.3 mph53%29.58 "Hg31 mi
5:00 PM61 °FCool.3 mph68%29.56 "Hg22 mi
4:00 PM62 °FCool.6 mph63%29.54 "Hg22 mi
3:00 PM60 °FLight rain. Cloudy.5 mph75%29.55 "Hg28 mi
2:00 PM61 °FCool.6 mph64%29.54 "HgN/A
1:00 PM61 °FRefreshingly cool.6 mph59%29.54 "Hg22 mi
12:00 PM61 °FCool.6 mph63%29.54 "Hg19 mi
11:00 AM59 °FCool.5 mph71%29.53 "Hg14 mi
10:00 AM56 °FCool.5 mph79%29.50 "Hg9 mi
9:00 AM54 °FCool.6 mph84%29.50 "Hg8 mi
8:00 AM54 °FPartly sunny.3 mph81%29.54 "Hg19 mi
7:00 AM53 °FCool.5 mph86%29.55 "Hg7 mi
6:00 AM54 °FCool.3 mph82%29.57 "Hg10 mi
5:00 AM54 °FCool.6 mph81%29.59 "Hg17 mi
4:00 AM55 °FCool.5 mph76%29.62 "Hg22 mi
3:00 AM55 °FCool.5 mph79%29.64 "Hg28 mi
Weather by CustomWeather, © 2016

See weather overviewHow to use our weather pages